Find Guangdong Hengjian

NORAD ID: 49007 Int'l Des: 2021-061 Owner: GUOX Country: CN operational
LEOCIRCULARRETROGRADE

Live Position

Loading 3D Globe...

About Guangdong Hengjian

Description loading...

Upcoming Passes

Passes for default location (London). Set your location on the main map for personalized predictions.

Altitude History

Loading altitude history...

Two-Line Element Set

1 49007U 21061E 26105.54199619 .00370940 59093-4 79280-3 0 9990
2 49007 97.2892 184.7405 0006594 228.3691 131.7023 15.98576788266367
Epoch: Apr 15, 2026 • Age: 21 hours

Current Status

Altitude 293.5 km
Velocity 7.74 km/s
Sub-Earth Point 81.46°N, 127.38°E
Launch Date Jul 3, 2021
Age 4.7 years
Type other

Technical Details

Classification Payload
Mass 10.00 kg
Dry Mass 10.00 kg
Total Mass 10.00 kg
Length 0.30 m
Diameter 0.20 m
Span 0.30 m
Shape Box
Manufacturer WEINA/GUOX
Bus Type Cubesat 6U
Phase Status In Orbit
Owner/State GUOX/CN

Most Searched